Weather History for Burns, OR

Change the Weather History Date:

Thursday, February 6, 2014

  Actual Average Record
Temperature  
Mean Temperature 17 °F 27 °F  
Max Temperature 20 °F 37 °F 57 °F (1963)
Min Temperature 13 °F 16 °F -25 °F (1989)
Degree Days  
Heating Degree Days 48 38  
Month to date heating degree days 258 232  
Since 1 July heating degree days 4668 4745  
Cooling Degree Days 0 0  
Month to date cooling degree days 0 0  
Year to date cooling degree days 0 0  
Moisture  
Dew Point 12 °F    
Average Humidity 80    
Maximum Humidity 92    
Minimum Humidity 67    
Precipitation  
Precipitation 0.10 in 0.04 in 0.32 in (1942)
Month to date precipitation 0.14 0.21  
Year to date precipitation 0.64 1.40  
Sea Level Pressure  
Sea Level Pressure 29.88 in    
Wind  
Wind Speed 10 mph (NE)    
Max Wind Speed 17 mph    
Max Gust Speed 22 mph    
Visibility 5 miles    
Events Snow    
T = Trace of Precipitation, MM = Missing Value Source: NWS Daily Summary

Daily Weather History Graph

Daily Weather History Graph

Search for Another Location

Airport:

Trip Planner

Search our weather history database for the weather conditions in past years. The results will help you decide how hot, cold, wet, or windy it might be!

Date:

Astronomy

Feb. 06, 2014 Rise Set
Actual Time 7:06 AM PST 5:14 PM PST
Civil Twilight 6:36 AM PST 5:44 PM PST
Nautical Twilight 6:02 AM PST 6:18 PM PST
Astronomical Twilight 5:28 AM PST 6:51 PM PST
Moon 10:48 AM PST (2/6) 12:27 AM PST (2/6)
Length of Visible Light 11h 07m
Length of Day
10h 07m
Waxing Crescent, 50% of the Moon is Illuminated
Feb 6
Waxing Crescent
Feb 14
Full
Feb 22
Last Quarter
Mar 1
New
Mar 8
First Quarter

Hourly Weather History & Observations

Time (PST) Temp. Windchill Dew Point Humidity Pressure Visibility Wind Dir Wind Speed Gust Speed Precip Events Conditions
12:53 AM 12.9 °F 2.6 °F 8.1 °F 81% 30.15 in 10.0 mi ENE 6.9 mph - N/A   Mostly Cloudy
1:53 AM 14.0 °F 2.9 °F 9.0 °F 80% 30.12 in 4.0 mi NE 8.1 mph - 0.00 in Snow Light Snow
2:04 AM 14.0 °F 1.2 °F 9.0 °F 80% 29.98 in 8.0 mi NE 10.4 mph - 0.00 in Snow Light Snow
2:53 AM 14.0 °F 1.2 °F 9.0 °F 80% 30.11 in 2.5 mi NNE 10.4 mph - 0.00 in Snow Light Snow
3:03 AM 14.0 °F 2.0 °F 9.0 °F 80% 29.97 in 5.0 mi NE 9.2 mph - 0.00 in Snow Light Snow
3:15 AM 14.0 °F 1.2 °F 9.0 °F 80% 29.96 in 3.0 mi NE 10.4 mph - 0.01 in Snow Light Snow
3:25 AM 14.0 °F 1.2 °F 9.0 °F 80% 29.96 in 2.0 mi NE 10.4 mph - 0.01 in Snow Light Snow
3:53 AM 14.0 °F 1.2 °F 9.0 °F 80% 30.09 in 3.0 mi NE 10.4 mph - 0.01 in Snow Light Snow
4:03 AM 14.0 °F 1.2 °F 9.0 °F 80% 29.95 in 2.5 mi NE 10.4 mph - 0.00 in Snow Light Snow
4:14 AM 14.0 °F 2.0 °F 9.0 °F 80% 29.95 in 4.0 mi NE 9.2 mph - 0.00 in Snow Light Snow
4:53 AM 14.0 °F 2.0 °F 9.0 °F 80% 30.09 in 3.0 mi NE 9.2 mph - 0.01 in Snow Light Snow
5:53 AM 14.0 °F 1.2 °F 9.0 °F 80% 30.08 in 3.0 mi NNE 10.4 mph - 0.00 in Snow Light Snow
6:53 AM 14.0 °F 1.2 °F 9.0 °F 80% 30.06 in 7.0 mi NE 10.4 mph - 0.01 in Snow Light Snow
7:53 AM 15.1 °F 2.5 °F 8.1 °F 74% 30.06 in 7.0 mi NE 10.4 mph - 0.00 in Snow Light Snow
8:08 AM 15.1 °F 1.1 °F 9.0 °F 77% 29.92 in 1.8 mi NE 12.7 mph - 0.00 in Snow Light Snow
8:36 AM 15.1 °F 1.8 °F 10.0 °F 80% 29.91 in 1.2 mi NE 11.5 mph - 0.01 in Snow Light Snow
8:44 AM 15.1 °F 1.1 °F 10.0 °F 80% 29.91 in 1.5 mi NE 12.7 mph - 0.01 in Snow Light Snow
8:53 AM 15.1 °F 1.1 °F 10.0 °F 80% 30.06 in 1.5 mi NE 12.7 mph - 0.01 in Snow Light Snow
9:03 AM 16.0 °F 2.3 °F 10.9 °F 81% 29.91 in 1.5 mi NE 12.7 mph - 0.00 in Snow Light Snow
9:07 AM 16.0 °F 1.1 °F 10.9 °F 81% 29.90 in 1.2 mi NE 15.0 mph - 0.00 in Snow Light Snow
9:18 AM 16.0 °F 2.3 °F 10.9 °F 81% 29.90 in 1.8 mi NE 12.7 mph - 0.00 in Snow Light Snow
9:30 AM 16.0 °F 0.6 °F 10.9 °F 81% 29.91 in 3.0 mi NE 16.1 mph - 0.00 in Snow Light Snow
9:53 AM 17.1 °F 3.6 °F 10.9 °F 77% 30.04 in 10.0 mi NE 12.7 mph - 0.01 in   Overcast
10:09 AM 17.1 °F 3.0 °F 10.0 °F 74% 29.90 in 10.0 mi ENE 13.8 mph - N/A   Overcast
10:53 AM 19.0 °F 5.6 °F 10.9 °F 71% 30.02 in 10.0 mi ENE 13.8 mph - 0.00 in   Overcast
11:53 AM 19.0 °F 6.1 °F 10.9 °F 71% 30.00 in 10.0 mi NE 12.7 mph - N/A   Overcast
12:53 PM 19.9 °F 5.7 °F 10.9 °F 68% 29.96 in 10.0 mi ENE 16.1 mph - N/A   Overcast
1:32 PM 19.9 °F 6.7 °F 12.9 °F 74% 29.80 in 10.0 mi ENE 13.8 mph - 0.00 in   Overcast
1:43 PM 19.9 °F 6.7 °F 12.9 °F 74% 29.79 in 1.8 mi ENE 13.8 mph - 0.00 in Snow Light Snow
1:53 PM 19.0 °F 5.0 °F 12.9 °F 77% 29.92 in 2.0 mi NE 15.0 mph - 0.00 in Snow Light Snow
2:22 PM 19.0 °F 5.0 °F 12.9 °F 77% 29.77 in 4.0 mi NE 15.0 mph - 0.00 in Snow Light Snow
2:53 PM 19.9 °F 6.7 °F 12.9 °F 74% 29.90 in 10.0 mi ENE 13.8 mph - 0.00 in   Overcast
3:53 PM 19.0 °F 6.8 °F 12.0 °F 74% 29.87 in 8.0 mi ENE 11.5 mph - 0.00 in Snow Light Snow
4:53 PM 17.1 °F 3.0 °F 12.0 °F 81% 29.86 in 10.0 mi ENE 13.8 mph - 0.00 in   Overcast
5:53 PM 17.1 °F 3.0 °F 12.0 °F 81% 29.82 in 5.0 mi NE 13.8 mph - 0.00 in Snow Light Snow
6:05 PM 17.1 °F 3.6 °F 12.0 °F 81% 29.69 in 2.5 mi NE 12.7 mph - 0.00 in Snow Light Snow
6:17 PM 17.1 °F 6.6 °F 12.9 °F 84% 29.69 in 1.2 mi NE 8.1 mph - 0.00 in Snow Light Snow
6:33 PM 17.1 °F 6.6 °F 14.0 °F 88% 29.69 in 1.0 mi NE 8.1 mph - 0.01 in Snow Light Snow
6:46 PM 17.1 °F 6.6 °F 15.1 °F 92% 29.69 in 0.8 mi NE 8.1 mph - 0.02 in Snow Light Snow
6:53 PM 17.1 °F 7.6 °F 15.1 °F 92% 29.82 in 1.0 mi ENE 6.9 mph - 0.02 in Snow Light Snow
7:09 PM 18.0 °F 6.1 °F 15.1 °F 88% 29.68 in 2.0 mi ENE 10.4 mph - 0.01 in Snow Light Snow
7:11 PM 18.0 °F 6.1 °F 15.1 °F 88% 29.68 in 3.0 mi ENE 10.4 mph - 0.01 in Snow Light Snow
7:53 PM 19.0 °F 10.0 °F 15.1 °F 85% 29.81 in 10.0 mi ENE 6.9 mph - 0.01 in   Overcast
8:26 PM 19.0 °F 13.9 °F 16.0 °F 88% 29.68 in 1.8 mi NNE 3.5 mph - 0.00 in Snow Light Snow
8:36 PM 19.0 °F - 17.1 °F 92% 29.68 in 3.0 mi Calm Calm - 0.01 in Snow Light Snow
8:53 PM 19.0 °F - 16.0 °F 88% 29.80 in 10.0 mi Calm Calm - 0.01 in   Overcast
9:34 PM 19.0 °F - 16.0 °F 88% 29.67 in 10.0 mi Calm Calm - N/A   Overcast
9:53 PM 19.0 °F 12.3 °F 15.1 °F 85% 29.79 in 10.0 mi NNW 4.6 mph - N/A   Overcast
10:53 PM 19.0 °F - 15.1 °F 85% 29.78 in 5.0 mi Calm Calm - 0.00 in Snow Light Snow
11:10 PM 19.0 °F - 16.0 °F 88% 29.66 in 10.0 mi Calm Calm - 0.00 in   Overcast
11:40 PM 19.0 °F 13.9 °F 16.0 °F 88% 29.65 in 1.8 mi North 3.5 mph - 0.00 in Snow Light Snow
11:46 PM 19.0 °F - 16.0 °F 88% 29.65 in 1.0 mi Calm Calm - 0.00 in Snow Light Snow
11:53 PM 19.0 °F - 16.0 °F 88% 29.77 in 1.5 mi Calm Calm - 0.00 in Snow Light Snow